When you browse on this site, cookies collect data to enhance your experience and personalize the content and advertising you see.
Visit our Privacy Policy to learn more. By continuing to use the site, you agree to this use of cookies and data.
  • In Österreich
  • Länderverzeichnis
  • Für 7 Tage
  • Wassertemperatur
  • Satellitenkarten
  • Wetterkarte
  • News
  • Widgets
  • user-avatar
    Anmelden

    Stündliche Wetter Saga

    Heute, 23 April, Dienstag

    Zeit Temperatur Niederschläge Wind Luftdruck Luftfeuchtigkeit
    00:00 +20°C° 0 mm 0 m/S 761 mmHg 60%
    01:00 +20°C° 0 mm 0 m/S 761 mmHg 60%
    02:00 +20°C° 0 mm 0 m/S 761 mmHg 61%
    03:00 +20°C° 0 mm 0 m/S 761 mmHg 61%
    04:00 +20°C° 0 mm 0 m/S 760 mmHg 62%
    05:00 +20°C° 0 mm 0 m/S 760 mmHg 62%
    06:00 +21°C° 0 mm 1 m/S 760 mmHg 63%
    07:00 +23°C° 0 mm 1 m/S 761 mmHg 61%
    08:00 +24°C° 0 mm 1 m/S 761 mmHg 60%
    09:00 +25°C° 0 mm 1 m/S 761 mmHg 58%
    10:00 +26°C° 0 mm 1 m/S 761 mmHg 56%
    11:00 +26°C° 0 mm 1 m/S 760 mmHg 54%
    12:00 +27°C° 0 mm 2 m/S 760 mmHg 52%
    13:00 +26°C° 0.2 mm 2 m/S 760 mmHg 55%
    14:00 +26°C° 0.2 mm 2 m/S 760 mmHg 58%
    15:00 +25°C° 0.2 mm 2 m/S 760 mmHg 60%
    16:00 +24°C° 1.5 mm 2 m/S 760 mmHg 65%
    17:00 +23°C° 1.5 mm 1 m/S 759 mmHg 70%
    18:00 +22°C° 1.5 mm 1 m/S 759 mmHg 74%
    19:00 +22°C° 1.2 mm 1 m/S 759 mmHg 76%
    20:00 +22°C° 1.2 mm 1 m/S 759 mmHg 78%
    21:00 +21°C° 1.2 mm 2 m/S 759 mmHg 80%
    22:00 +21°C° 0.3 mm 2 m/S 758 mmHg 80%
    23:00 +20°C° 0.3 mm 2 m/S 758 mmHg 80%

    Morgen, 24 April, Mittwoch

    Zeit Temperatur Niederschläge Wind Luftdruck Luftfeuchtigkeit
    00:00 +20°C° 0.3 mm 2 m/S 758 mmHg 80%
    01:00 +20°C° 0.3 mm 3 m/S 757 mmHg 80%
    02:00 +20°C° 0.3 mm 3 m/S 757 mmHg 81%
    03:00 +20°C° 0.3 mm 3 m/S 756 mmHg 81%
    04:00 +20°C° 0.3 mm 3 m/S 756 mmHg 82%
    05:00 +21°C° 0.3 mm 3 m/S 756 mmHg 83%
    06:00 +21°C° 0.3 mm 2 m/S 756 mmHg 84%
    07:00 +21°C° 0.2 mm 2 m/S 756 mmHg 84%
    08:00 +21°C° 0.2 mm 2 m/S 756 mmHg 84%
    09:00 +23°C° 0.2 mm 2 m/S 756 mmHg 84%
    10:00 +22°C° 0.1 mm 3 m/S 756 mmHg 84%
    11:00 +24°C° 0.1 mm 3 m/S 756 mmHg 85%
    12:00 +24°C° 0.1 mm 3 m/S 756 mmHg 85%
    13:00 +23°C° 0 mm 4 m/S 756 mmHg 81%
    14:00 +25°C° 0 mm 4 m/S 755 mmHg 78%
    15:00 +25°C° 0 mm 4 m/S 755 mmHg 74%
    16:00 +25°C° 0 mm 4 m/S 755 mmHg 75%
    17:00 +25°C° 0 mm 4 m/S 754 mmHg 75%
    18:00 +24°C° 0 mm 3 m/S 754 mmHg 76%
    19:00 +22°C° 0 mm 3 m/S 754 mmHg 80%
    20:00 +23°C° 0 mm 2 m/S 755 mmHg 84%
    21:00 +22°C° 0 mm 1 m/S 755 mmHg 88%
    22:00 +22°C° 0.1 mm 1 m/S 755 mmHg 89%
    23:00 +22°C° 0.1 mm 1 m/S 755 mmHg 90%

    übermorgen, 25 April, Donnerstag

    Zeit Temperatur Niederschläge Wind Luftdruck Luftfeuchtigkeit
    00:00 +21°C° 0.1 mm 1 m/S 755 mmHg 91%
    01:00 +21°C° 0 mm 1 m/S 754 mmHg 91%
    02:00 +21°C° 0 mm 1 m/S 754 mmHg 91%
    03:00 +21°C° 0 mm 1 m/S 754 mmHg 91%
    04:00 +21°C° 0 mm 1 m/S 754 mmHg 91%
    05:00 +21°C° 0 mm 1 m/S 754 mmHg 91%
    06:00 +20°C° 0 mm 1 m/S 754 mmHg 90%
    07:00 +21°C° 0 mm 1 m/S 754 mmHg 84%
    08:00 +22°C° 0 mm 1 m/S 754 mmHg 79%
    09:00 +22°C° 0 mm 1 m/S 755 mmHg 73%
    10:00 +24°C° 0 mm 1 m/S 755 mmHg 68%
    11:00 +25°C° 0 mm 1 m/S 755 mmHg 63%
    12:00 +26°C° 0 mm 1 m/S 755 mmHg 59%
    13:00 +26°C° 0 mm 2 m/S 755 mmHg 59%
    14:00 +26°C° 0 mm 2 m/S 754 mmHg 59%
    15:00 +26°C° 0 mm 2 m/S 754 mmHg 59%
    16:00 +25°C° 0 mm 2 m/S 754 mmHg 63%
    17:00 +24°C° 0 mm 2 m/S 754 mmHg 66%
    18:00 +23°C° 0 mm 2 m/S 754 mmHg 70%
    19:00 +21°C° 0 mm 2 m/S 755 mmHg 73%
    20:00 +20°C° 0 mm 2 m/S 755 mmHg 76%
    21:00 +19°C° 0 mm 2 m/S 756 mmHg 79%
    22:00 +18°C° 0 mm 2 m/S 756 mmHg 81%
    23:00 +18°C° 0 mm 2 m/S 755 mmHg 82%

    26 April, Freitag

    Zeit Temperatur Niederschläge Wind Luftdruck Luftfeuchtigkeit
    00:00 +17°C° 0 mm 2 m/S 755 mmHg 83%
    01:00 +17°C° 0 mm 2 m/S 755 mmHg 83%
    02:00 +17°C° 0 mm 2 m/S 755 mmHg 84%
    03:00 +17°C° 0 mm 2 m/S 755 mmHg 85%
    04:00 +17°C° 0 mm 2 m/S 755 mmHg 84%
    05:00 +17°C° 0 mm 2 m/S 756 mmHg 84%
    06:00 +17°C° 0 mm 2 m/S 756 mmHg 84%
    07:00 +17°C° 0.1 mm 2 m/S 756 mmHg 80%
    08:00 +18°C° 0.1 mm 2 m/S 757 mmHg 77%
    09:00 +18°C° 0.1 mm 2 m/S 757 mmHg 74%
    10:00 +20°C° 0 mm 2 m/S 757 mmHg 67%
    11:00 +21°C° 0 mm 2 m/S 758 mmHg 60%
    12:00 +23°C° 0 mm 2 m/S 758 mmHg 53%
    13:00 +21°C° 0 mm 3 m/S 758 mmHg 52%
    14:00 +21°C° 0 mm 3 m/S 758 mmHg 52%
    15:00 +21°C° 0 mm 4 m/S 758 mmHg 51%
    16:00 +20°C° 0 mm 4 m/S 758 mmHg 53%
    17:00 +19°C° 0 mm 4 m/S 758 mmHg 55%
    18:00 +18°C° 0 mm 4 m/S 759 mmHg 57%
    19:00 +17°C° 0 mm 4 m/S 759 mmHg 60%
    20:00 +15°C° 0 mm 4 m/S 760 mmHg 62%
    21:00 +14°C° 0 mm 3 m/S 761 mmHg 65%
    22:00 +14°C° 0 mm 3 m/S 761 mmHg 66%
    23:00 +14°C° 0 mm 3 m/S 761 mmHg 67%

    27 April, Samstag

    Zeit Temperatur Niederschläge Wind Luftdruck Luftfeuchtigkeit
    00:00 +13°C° 0 mm 3 m/S 761 mmHg 68%
    01:00 +13°C° 0 mm 3 m/S 761 mmHg 68%
    02:00 +12°C° 0 mm 3 m/S 762 mmHg 68%
    03:00 +12°C° 0 mm 3 m/S 762 mmHg 69%
    04:00 +12°C° 0 mm 3 m/S 762 mmHg 69%
    05:00 +12°C° 0 mm 3 m/S 762 mmHg 69%
    06:00 +12°C° 0 mm 3 m/S 763 mmHg 69%
    07:00 +13°C° 0 mm 3 m/S 763 mmHg 62%
    08:00 +14°C° 0 mm 4 m/S 764 mmHg 55%
    09:00 +15°C° 0 mm 4 m/S 764 mmHg 48%
    10:00 +18°C° 0 mm 4 m/S 764 mmHg 43%
    11:00 +19°C° 0 mm 4 m/S 764 mmHg 38%
    12:00 +20°C° 0 mm 4 m/S 764 mmHg 33%
    13:00 +20°C° 0 mm 4 m/S 764 mmHg 32%
    14:00 +21°C° 0 mm 4 m/S 764 mmHg 32%
    15:00 +21°C° 0 mm 4 m/S 764 mmHg 31%
    16:00 +20°C° 0 mm 4 m/S 764 mmHg 35%
    17:00 +19°C° 0 mm 4 m/S 764 mmHg 38%
    18:00 +18°C° 0 mm 4 m/S 764 mmHg 42%
    19:00 +17°C° 0 mm 4 m/S 764 mmHg 45%
    20:00 +16°C° 0 mm 3 m/S 765 mmHg 48%
    21:00 +14°C° 0 mm 3 m/S 765 mmHg 51%
    22:00 +14°C° 0 mm 2 m/S 765 mmHg 52%
    23:00 +14°C° 0 mm 2 m/S 765 mmHg 53%

    28 April, Sonntag

    Zeit Temperatur Niederschläge Wind Luftdruck Luftfeuchtigkeit
    00:00 +14°C° 0 mm 2 m/S 765 mmHg 54%
    01:00 +13°C° 0 mm 2 m/S 765 mmHg 54%
    02:00 +13°C° 0 mm 1 m/S 765 mmHg 55%
    03:00 +13°C° 0 mm 1 m/S 765 mmHg 55%
    04:00 +13°C° 0 mm 1 m/S 765 mmHg 54%
    05:00 +13°C° 0 mm 1 m/S 765 mmHg 54%
    06:00 +13°C° 0 mm 1 m/S 765 mmHg 53%
    07:00 +15°C° 0 mm 1 m/S 765 mmHg 50%
    08:00 +18°C° 0 mm 1 m/S 765 mmHg 47%
    09:00 +20°C° 0 mm 1 m/S 766 mmHg 44%
    10:00 +20°C° 0 mm 2 m/S 765 mmHg 41%
    11:00 +23°C° 0 mm 2 m/S 765 mmHg 38%
    12:00 +24°C° 0 mm 3 m/S 764 mmHg 35%
    13:00 +24°C° 0 mm 3 m/S 764 mmHg 35%
    14:00 +24°C° 0 mm 2 m/S 764 mmHg 36%
    15:00 +25°C° 0 mm 2 m/S 763 mmHg 36%
    16:00 +24°C° 0 mm 2 m/S 763 mmHg 42%
    17:00 +23°C° 0 mm 2 m/S 763 mmHg 48%
    18:00 +21°C° 0 mm 2 m/S 763 mmHg 55%
    19:00 +21°C° 0.1 mm 2 m/S 763 mmHg 58%
    20:00 +20°C° 0.1 mm 3 m/S 763 mmHg 62%
    21:00 +20°C° 0.1 mm 3 m/S 763 mmHg 66%
    22:00 +19°C° 0.3 mm 3 m/S 763 mmHg 68%
    23:00 +19°C° 0.3 mm 3 m/S 762 mmHg 70%
    Mehr zeigen